Weather History for Iliamna, AK

Change the Weather History Date:

Tuesday, April 1, 2014

  Actual Average Record
Temperature  
Mean Temperature 28 °F -  
Max Temperature 39 °F 34 °F 48 °F (1957)
Min Temperature 19 °F 20 °F -13 °F (1944)
Degree Days  
Heating Degree Days 37    
Moisture  
Dew Point 18 °F    
Average Humidity 62    
Maximum Humidity 85    
Minimum Humidity 33    
Precipitation  
Precipitation 0.00 in - - ()
Sea Level Pressure  
Sea Level Pressure 29.90 in    
Wind  
Wind Speed 7 mph (ENE)    
Max Wind Speed 16 mph    
Max Gust Speed 23 mph    
Visibility 10 miles    
Events      
Averages and records for this station are not official NWS values.
T = Trace of Precipitation, MM = Missing Value Source: NWS Daily Summary

Daily Weather History Graph

Daily Weather History Graph

Search for Another Location

Airport:

Trip Planner

Search our weather history database for the weather conditions in past years. The results will help you decide how hot, cold, wet, or windy it might be!

Date:

Astronomy

Apr. 01, 2014 Rise Set
Actual Time 7:44 AM AKDT 9:03 PM AKDT
Civil Twilight 7:01 AM AKDT 9:46 PM AKDT
Nautical Twilight 6:09 AM AKDT 10:39 PM AKDT
Astronomical Twilight 5:07 AM AKDT 11:42 PM AKDT
Moon 8:23 AM AKDT (4/1) No Moon Set
Length of Visible Light 14h 44m
Length of Day
13h 19m
Waxing Crescent, 5% of the Moon is Illuminated
Apr 1
Waxing Crescent
Apr 7
First Quarter
Apr 14
Full
Apr 21
Last Quarter
Apr 28
New

Hourly Weather History & Observations

Time (AKDT) Temp. Windchill Dew Point Humidity Pressure Visibility Wind Dir Wind Speed Gust Speed Precip Events Conditions
12:53 AM 21.9 °F 17.2 °F 17.1 °F 82% 29.98 in 10.0 mi NNE 3.5 mph - N/A   Clear
1:53 AM 21.0 °F - 17.1 °F 85% 29.97 in 10.0 mi Calm Calm - N/A   Clear
2:53 AM 19.9 °F 14.9 °F 15.1 °F 81% 29.96 in 10.0 mi North 3.5 mph - N/A   Clear
3:53 AM 19.9 °F 11.1 °F 15.1 °F 81% 29.94 in 10.0 mi NNW 6.9 mph - N/A   Clear
4:53 AM 21.0 °F 14.6 °F 16.0 °F 81% 29.94 in 10.0 mi North 4.6 mph - N/A   Clear
5:53 AM 21.9 °F 13.4 °F 16.0 °F 78% 29.92 in 10.0 mi North 6.9 mph - N/A   Clear
6:53 AM 23.0 °F 13.9 °F 15.1 °F 72% 29.91 in 10.0 mi North 8.1 mph - N/A   Clear
7:53 AM 21.9 °F 12.5 °F 14.0 °F 72% 29.90 in 10.0 mi North 8.1 mph - N/A   Clear
8:53 AM 25.0 °F 17.1 °F 15.1 °F 66% 29.90 in 10.0 mi North 6.9 mph - N/A   Clear
9:53 AM 30.9 °F 25.2 °F 15.1 °F 52% 29.90 in 10.0 mi NNE 5.8 mph - N/A   Clear
10:53 AM 35.1 °F 32.2 °F 17.1 °F 48% 29.90 in 10.0 mi NE 3.5 mph - N/A   Clear
11:53 AM 36.0 °F 29.0 °F 14.0 °F 41% 29.90 in 10.0 mi East 9.2 mph - N/A   Clear
12:53 PM 37.0 °F 28.9 °F 19.9 °F 50% 29.90 in 10.0 mi East 12.7 mph - N/A   Clear
1:53 PM 37.0 °F 27.7 °F 19.9 °F 50% 29.89 in 10.0 mi East 16.1 mph 23.0 mph N/A   Clear
2:53 PM 37.9 °F 30.0 °F 21.0 °F 51% 29.88 in 10.0 mi ESE 12.7 mph 21.9 mph N/A   Clear
3:53 PM 37.9 °F 29.6 °F 19.0 °F 47% 29.88 in 10.0 mi East 13.8 mph - N/A   Clear
4:53 PM 37.0 °F 29.3 °F 21.0 °F 52% 29.87 in 10.0 mi ESE 11.5 mph - N/A   Clear
5:53 PM 37.0 °F 28.9 °F 23.0 °F 57% 29.86 in 10.0 mi East 12.7 mph - N/A   Clear
6:53 PM 36.0 °F 28.5 °F 24.1 °F 62% 29.86 in 10.0 mi East 10.4 mph - N/A   Clear
7:53 PM 33.1 °F 26.9 °F 24.1 °F 70% 29.87 in 10.0 mi ESE 6.9 mph - N/A   Clear
8:53 PM 30.0 °F 24.1 °F 23.0 °F 75% 29.88 in 10.0 mi ESE 5.8 mph - N/A   Clear
9:53 PM 28.9 °F 21.1 °F 19.0 °F 67% 29.88 in 10.0 mi ENE 8.1 mph - N/A   Partly Cloudy
10:53 PM 28.0 °F 21.7 °F 18.0 °F 66% 29.88 in 10.0 mi ENE 5.8 mph - N/A   Clear
11:53 PM 28.0 °F 20.0 °F 17.1 °F 63% 29.88 in 10.0 mi ENE 8.1 mph - N/A   Clear